| time (UTC) | temp F | wind direction | speed MPH | gust MPH | rain 1hr in | rain 24hr in | rain mn in | humidity % | barometer mb |
| 20260901223020 | 60 | 284 | 3.0 | 7.0 | 0.00 | 0.00 | 0.00 | 75 | 1019.5 |
| 20260901222519 | 60 | 284 | 3.0 | 9.0 | 0.00 | 0.00 | 0.00 | 75 | 1019.5 |
| 20260901222017 | 60 | 287 | 2.0 | 6.0 | 0.00 | 0.00 | 0.00 | 74 | 1019.5 |
| 20260901221535 | 60 | 285 | 2.0 | 6.0 | 0.00 | 0.00 | 0.00 | 74 | 1019.5 |
| 20260901221033 | 60 | 288 | 3.0 | 7.0 | 0.00 | 0.00 | 0.00 | 74 | 1019.5 |
| 20260901220531 | 60 | 288 | 2.0 | 6.0 | 0.00 | 0.00 | 0.00 | 74 | 1019.4 |
| 20260901220030 | 60 | 281 | 2.0 | 4.0 | 0.00 | 0.00 | 0.00 | 74 | 1019.4 |
| 20260901215527 | 60 | 279 | 2.0 | 4.0 | 0.00 | 0.00 | 0.00 | 74 | 1019.5 |
| 20260901215025 | 60 | 264 | 1.0 | 3.0 | 0.00 | 0.00 | 0.00 | 74 | 1019.5 |
| 20260901214523 | 60 | 261 | 1.0 | 4.0 | 0.00 | 0.00 | 0.00 | 74 | 1019.6 |
| 20260901214022 | 60 | 258 | 1.0 | 2.0 | 0.00 | 0.00 | 0.00 | 74 | 1019.5 |
| 20260901213520 | 60 | 258 | 1.0 | 4.0 | 0.00 | 0.00 | 0.00 | 74 | 1019.5 |
| 20260901213049 | 60 | 275 | 1.0 | 3.0 | 0.00 | 0.00 | 0.00 | 74 | 1019.4 |
| 20260901213018 | 60 | 275 | 1.0 | 3.0 | 0.00 | 0.00 | 0.00 | 74 | 1019.4 |
| 20260901212516 | 60 | 274 | 1.0 | 3.0 | 0.00 | 0.00 | 0.00 | 74 | 1019.5 |
| 20260901212034 | 60 | 260 | 1.0 | 3.0 | 0.00 | 0.00 | 0.00 | 73 | 1019.5 |
| 20260901211532 | 60 | 0.0 | 0.0 | 0.00 | 0.00 | 0.00 | 73 | 1019.5 | |
| 20260901211030 | 61 | 259 | 0.0 | 1.0 | 0.00 | 0.00 | 0.00 | 73 | 1019.5 |
| 20260901210528 | 61 | 278 | 1.0 | 4.0 | 0.00 | 0.00 | 0.00 | 73 | 1019.5 |
| 20260901210027 | 61 | 0.0 | 0.0 | 0.00 | 0.00 | 0.00 | 72 | 1019.6 | |
| 20260901205525 | 61 | 0.0 | 0.0 | 0.00 | 0.00 | 0.00 | 72 | 1019.5 | |
| 20260901205023 | 61 | 259 | 0.0 | 1.0 | 0.00 | 0.00 | 0.00 | 72 | 1019.5 |
| 20260901204521 | 62 | 252 | 0.0 | 1.0 | 0.00 | 0.00 | 0.00 | 72 | 1019.5 |
| 20260901204019 | 62 | 0.0 | 0.0 | 0.00 | 0.00 | 0.00 | 72 | 1019.5 | |
| 20260901203517 | 62 | 291 | 1.0 | 2.0 | 0.00 | 0.00 | 0.00 | 72 | 1019.4 |
| 20260901203016 | 62 | 284 | 2.0 | 3.0 | 0.00 | 0.00 | 0.00 | 71 | 1019.5 |
| 20260901202534 | 62 | 285 | 2.0 | 3.0 | 0.00 | 0.00 | 0.00 | 71 | 1019.5 |
| 20260901202032 | 62 | 286 | 1.0 | 3.0 | 0.00 | 0.00 | 0.00 | 71 | 1019.5 |
| 20260901201530 | 62 | 287 | 1.0 | 3.0 | 0.00 | 0.00 | 0.00 | 71 | 1019.4 |
| 20260901201028 | 62 | 287 | 1.0 | 3.0 | 0.00 | 0.00 | 0.00 | 70 | 1019.5 |
| 20260901200526 | 63 | 288 | 1.0 | 3.0 | 0.00 | 0.00 | 0.00 | 70 | 1019.4 |
| 20260901200024 | 63 | 293 | 2.0 | 2.0 | 0.00 | 0.00 | 0.00 | 70 | 1019.3 |
| 20260901195523 | 63 | 287 | 2.0 | 3.0 | 0.00 | 0.00 | 0.00 | 70 | 1019.5 |
| 20260901195020 | 63 | 288 | 2.0 | 3.0 | 0.00 | 0.00 | 0.00 | 70 | 1019.5 |
| 20260901194518 | 63 | 290 | 2.0 | 6.0 | 0.00 | 0.00 | 0.00 | 70 | 1019.5 |
| 20260901194048 | 63 | 293 | 2.0 | 3.0 | 0.00 | 0.00 | 0.00 | 70 | 1019.5 |
| 20260901194016 | 63 | 293 | 2.0 | 3.0 | 0.00 | 0.00 | 0.00 | 70 | 1019.5 |
| 20260901193535 | 63 | 261 | 1.0 | 4.0 | 0.00 | 0.00 | 0.00 | 69 | 1019.4 |
| 20260901193033 | 63 | 254 | 1.0 | 3.0 | 0.00 | 0.00 | 0.00 | 69 | 1019.5 |
| 20260901192531 | 63 | 258 | 1.0 | 2.0 | 0.00 | 0.00 | 0.00 | 69 | 1019.6 |
| 20260901192029 | 63 | 250 | 1.0 | 2.0 | 0.00 | 0.00 | 0.00 | 69 | 1019.5 |
| 20260901191527 | 64 | 251 | 1.0 | 2.0 | 0.00 | 0.00 | 0.00 | 69 | 1019.5 |
| 20260901191025 | 64 | 256 | 1.0 | 3.0 | 0.00 | 0.00 | 0.00 | 68 | 1019.4 |
| 20260901190523 | 64 | 256 | 1.0 | 3.0 | 0.00 | 0.00 | 0.00 | 68 | 1019.5 |
| 20260901190022 | 64 | 258 | 1.0 | 3.0 | 0.00 | 0.00 | 0.00 | 68 | 1019.5 |
| 20260901185520 | 64 | 286 | 0.0 | 2.0 | 0.00 | 0.00 | 0.00 | 68 | 1019.5 |
| 20260901185018 | 64 | 288 | 1.0 | 3.0 | 0.00 | 0.00 | 0.00 | 68 | 1019.4 |
| 20260901184516 | 64 | 290 | 2.0 | 3.0 | 0.00 | 0.00 | 0.00 | 68 | 1019.4 |
| 20260901184034 | 64 | 278 | 2.0 | 4.0 | 0.00 | 0.00 | 0.00 | 68 | 1019.3 |
| 20260901183532 | 65 | 290 | 2.0 | 4.0 | 0.00 | 0.00 | 0.00 | 67 | 1019.4 |
| 20260901183031 | 65 | 281 | 2.0 | 6.0 | 0.00 | 0.00 | 0.00 | 67 | 1019.3 |
| 20260901182529 | 65 | 286 | 3.0 | 6.0 | 0.00 | 0.00 | 0.00 | 67 | 1019.4 |
| 20260901182027 | 65 | 279 | 3.0 | 6.0 | 0.00 | 0.00 | 0.00 | 67 | 1019.2 |
| 20260901181525 | 65 | 291 | 3.0 | 6.0 | 0.00 | 0.00 | 0.00 | 67 | 1019.2 |
| 20260901181023 | 65 | 285 | 3.0 | 7.0 | 0.00 | 0.00 | 0.00 | 67 | 1019.2 |
| 20260901180522 | 65 | 280 | 3.0 | 9.0 | 0.00 | 0.00 | 0.00 | 67 | 1019.0 |
| 20260901180020 | 65 | 264 | 3.0 | 6.0 | 0.00 | 0.00 | 0.00 | 67 | 1019.0 |
| 20260901175518 | 66 | 270 | 3.0 | 8.0 | 0.00 | 0.00 | 0.00 | 67 | 1019.0 |
| 20260901175016 | 66 | 272 | 2.0 | 4.0 | 0.00 | 0.00 | 0.00 | 67 | 1019.0 |
| 20260901174534 | 66 | 266 | 2.0 | 4.0 | 0.00 | 0.00 | 0.00 | 67 | 1019.0 |
| 20260901174033 | 66 | 258 | 1.0 | 4.0 | 0.00 | 0.00 | 0.00 | 66 | 1018.8 |
| 20260901173530 | 66 | 277 | 2.0 | 4.0 | 0.00 | 0.00 | 0.00 | 66 | 1018.8 |
| 20260901173029 | 66 | 261 | 1.0 | 4.0 | 0.00 | 0.00 | 0.00 | 66 | 1018.8 |
| 20260901172527 | 66 | 270 | 1.0 | 3.0 | 0.00 | 0.00 | 0.00 | 66 | 1018.8 |
| 20260901172025 | 66 | 0.0 | 0.0 | 0.00 | 0.00 | 0.00 | 66 | 1018.8 | |
| 20260901171523 | 66 | 294 | 0.0 | 3.0 | 0.00 | 0.00 | 0.00 | 66 | 1018.7 |
| 20260901171021 | 66 | 279 | 2.0 | 4.0 | 0.00 | 0.00 | 0.00 | 66 | 1018.6 |
| 20260901170519 | 66 | 287 | 2.0 | 6.0 | 0.00 | 0.00 | 0.00 | 66 | 1018.6 |
| 20260901170049 | 67 | 290 | 2.0 | 6.0 | 0.00 | 0.00 | 0.00 | 66 | 1018.6 |
| 20260901170017 | 67 | 290 | 2.0 | 6.0 | 0.00 | 0.00 | 0.00 | 66 | 1018.6 |
| 20260901165535 | 67 | 286 | 2.0 | 6.0 | 0.00 | 0.00 | 0.00 | 65 | 1018.6 |
| 20260901165034 | 67 | 291 | 3.0 | 7.0 | 0.00 | 0.00 | 0.00 | 65 | 1018.6 |
| 20260901164532 | 67 | 289 | 3.0 | 8.0 | 0.00 | 0.00 | 0.00 | 65 | 1018.6 |
| 20260901164030 | 67 | 285 | 4.0 | 8.0 | 0.00 | 0.00 | 0.00 | 65 | 1018.5 |
| 20260901163528 | 67 | 283 | 2.0 | 6.0 | 0.00 | 0.00 | 0.00 | 65 | 1018.4 |
| 20260901163026 | 67 | 287 | 3.0 | 8.0 | 0.00 | 0.00 | 0.00 | 65 | 1018.4 |
| 20260901162524 | 67 | 274 | 3.0 | 7.0 | 0.00 | 0.00 | 0.00 | 65 | 1018.5 |
| 20260901162022 | 67 | 279 | 3.0 | 8.0 | 0.00 | 0.00 | 0.00 | 65 | 1018.4 |
| 20260901161520 | 67 | 276 | 4.0 | 8.0 | 0.00 | 0.00 | 0.00 | 64 | 1018.5 |
| 20260901161019 | 67 | 281 | 5.0 | 10.0 | 0.00 | 0.00 | 0.00 | 64 | 1018.5 |
| 20260901160516 | 67 | 285 | 5.0 | 11.0 | 0.00 | 0.00 | 0.00 | 64 | 1018.5 |
| 20260901160034 | 67 | 288 | 6.0 | 10.0 | 0.00 | 0.00 | 0.00 | 64 | 1018.4 |
| 20260901155533 | 67 | 274 | 4.0 | 9.0 | 0.00 | 0.00 | 0.00 | 64 | 1018.4 |
| 20260901155031 | 67 | 287 | 7.0 | 15.0 | 0.00 | 0.00 | 0.00 | 64 | 1018.4 |
| 20260901154529 | 67 | 281 | 5.0 | 11.0 | 0.00 | 0.00 | 0.00 | 64 | 1018.3 |
| 20260901154027 | 67 | 289 | 6.0 | 13.0 | 0.00 | 0.00 | 0.00 | 64 | 1018.3 |
| 20260901153525 | 67 | 277 | 5.0 | 10.0 | 0.00 | 0.00 | 0.00 | 64 | 1018.4 |
| 20260901153023 | 67 | 288 | 5.0 | 10.0 | 0.00 | 0.00 | 0.00 | 64 | 1018.3 |
| 20260901152521 | 67 | 291 | 6.0 | 15.0 | 0.00 | 0.00 | 0.00 | 64 | 1018.3 |
| 20260901152020 | 67 | 290 | 6.0 | 19.0 | 0.00 | 0.00 | 0.00 | 63 | 1018.3 |
| 20260901151517 | 67 | 287 | 8.0 | 16.0 | 0.00 | 0.00 | 0.00 | 63 | 1018.2 |
| 20260901151049 | 67 | 287 | 7.0 | 14.0 | 0.00 | 0.00 | 0.00 | 63 | 1018.2 |
| 20260901151015 | 67 | 287 | 7.0 | 14.0 | 0.00 | 0.00 | 0.00 | 63 | 1018.2 |
| 20260901150534 | 67 | 289 | 6.0 | 15.0 | 0.00 | 0.00 | 0.00 | 64 | 1018.2 |
| 20260901150032 | 67 | 279 | 6.0 | 15.0 | 0.00 | 0.00 | 0.00 | 63 | 1018.2 |
| 20260901145530 | 67 | 279 | 7.0 | 16.0 | 0.00 | 0.00 | 0.00 | 63 | 1018.1 |
| 20260901145028 | 67 | 278 | 6.0 | 17.0 | 0.00 | 0.00 | 0.00 | 63 | 1018.2 |
| 20260901144526 | 67 | 286 | 4.0 | 11.0 | 0.00 | 0.00 | 0.00 | 63 | 1018.2 |
| 20260901144025 | 68 | 297 | 6.0 | 13.0 | 0.00 | 0.00 | 0.00 | 63 | 1018.1 |
| 20260901143523 | 68 | 270 | 6.0 | 13.0 | 0.00 | 0.00 | 0.00 | 63 | 1018.2 |
| 20260901143021 | 68 | 276 | 5.0 | 10.0 | 0.00 | 0.00 | 0.00 | 63 | 1018.2 |
| 20260901142519 | 68 | 279 | 5.0 | 10.0 | 0.00 | 0.00 | 0.00 | 63 | 1018.1 |
| 20260901142049 | 68 | 279 | 5.0 | 13.0 | 0.00 | 0.00 | 0.00 | 63 | 1018.1 |
| 20260901142017 | 68 | 279 | 5.0 | 13.0 | 0.00 | 0.00 | 0.00 | 63 | 1018.1 |
| 20260901141535 | 68 | 285 | 6.0 | 13.0 | 0.00 | 0.07 | 0.00 | 63 | 1018.0 |
| 20260901141033 | 68 | 262 | 6.0 | 14.0 | 0.00 | 0.07 | 0.00 | 63 | 1018.1 |
| 20260901140532 | 68 | 271 | 6.0 | 14.0 | 0.00 | 0.07 | 0.00 | 63 | 1018.0 |
| 20260901140029 | 68 | 276 | 5.0 | 11.0 | 0.00 | 0.07 | 0.00 | 63 | 1018.0 |
| 20260901135527 | 68 | 284 | 7.0 | 15.0 | 0.00 | 0.07 | 0.00 | 63 | 1018.0 |
| 20260901135025 | 68 | 280 | 8.0 | 17.0 | 0.00 | 0.08 | 0.00 | 63 | 1018.0 |
| 20260901134523 | 68 | 277 | 5.0 | 11.0 | 0.00 | 0.08 | 0.00 | 63 | 1018.1 |
| 20260901134022 | 68 | 262 | 5.0 | 13.0 | 0.00 | 0.08 | 0.00 | 63 | 1018.0 |
| 20260901133521 | 68 | 273 | 8.0 | 17.0 | 0.00 | 0.08 | 0.00 | 63 | 1018.1 |
| 20260901133019 | 67 | 270 | 7.0 | 16.0 | 0.00 | 0.08 | 0.00 | 63 | 1018.1 |
| 20260901132516 | 67 | 280 | 7.0 | 14.0 | 0.00 | 0.08 | 0.00 | 63 | 1018.1 |
| 20260901132035 | 67 | 291 | 8.0 | 17.0 | 0.00 | 0.08 | 0.00 | 63 | 1018.1 |
| 20260901131533 | 67 | 278 | 6.0 | 14.0 | 0.00 | 0.08 | 0.00 | 63 | 1018.1 |
| 20260901131031 | 68 | 277 | 6.0 | 11.0 | 0.00 | 0.08 | 0.00 | 63 | 1017.9 |
| 20260901130529 | 68 | 277 | 7.0 | 15.0 | 0.00 | 0.08 | 0.00 | 63 | 1017.9 |
| 20260901130027 | 68 | 273 | 7.0 | 14.0 | 0.00 | 0.08 | 0.00 | 63 | 1018.0 |
| 20260901125525 | 68 | 282 | 8.0 | 18.0 | 0.00 | 0.08 | 0.00 | 63 | 1018.0 |
| 20260901125024 | 67 | 265 | 6.0 | 21.0 | 0.00 | 0.08 | 0.00 | 64 | 1018.0 |
| 20260901124521 | 67 | 285 | 9.0 | 17.0 | 0.00 | 0.08 | 0.00 | 63 | 1017.9 |
| 20260901124020 | 67 | 280 | 5.0 | 11.0 | 0.00 | 0.08 | 0.00 | 63 | 1017.9 |
| 20260901123518 | 67 | 278 | 6.0 | 13.0 | 0.00 | 0.08 | 0.00 | 63 | 1017.9 |
| 20260901123052 | 67 | 289 | 8.0 | 18.0 | 0.00 | 0.08 | 0.00 | 62 | 1017.9 |
| 20260901123016 | 67 | 289 | 8.0 | 18.0 | 0.00 | 0.08 | 0.00 | 62 | 1017.9 |
| 20260901122534 | 68 | 278 | 6.0 | 15.0 | 0.00 | 0.08 | 0.00 | 61 | 1017.9 |
| 20260901122032 | 68 | 282 | 7.0 | 13.0 | 0.00 | 0.08 | 0.00 | 61 | 1017.8 |
| 20260901121531 | 68 | 290 | 6.0 | 13.0 | 0.00 | 0.08 | 0.00 | 61 | 1017.7 |
| 20260901121029 | 68 | 291 | 7.0 | 15.0 | 0.00 | 0.08 | 0.00 | 61 | 1017.7 |
| 20260901120527 | 68 | 280 | 6.0 | 16.0 | 0.00 | 0.08 | 0.00 | 61 | 1017.7 |
| 20260901120025 | 68 | 277 | 7.0 | 16.0 | 0.00 | 0.08 | 0.00 | 61 | 1017.7 |
| 20260901115523 | 68 | 284 | 7.0 | 17.0 | 0.00 | 0.08 | 0.00 | 61 | 1017.8 |
| 20260901115022 | 68 | 274 | 7.0 | 14.0 | 0.00 | 0.08 | 0.00 | 61 | 1017.8 |
| 20260901114519 | 68 | 295 | 7.0 | 21.0 | 0.00 | 0.08 | 0.00 | 61 | 1017.8 |
| 20260901114049 | 68 | 277 | 6.0 | 22.0 | 0.00 | 0.08 | 0.00 | 61 | 1017.7 |
| 20260901114017 | 68 | 277 | 6.0 | 22.0 | 0.00 | 0.08 | 0.00 | 61 | 1017.7 |
| 20260901113515 | 68 | 276 | 5.0 | 13.0 | 0.00 | 0.08 | 0.00 | 61 | 1017.7 |
| 20260901113034 | 68 | 278 | 6.0 | 17.0 | 0.00 | 0.08 | 0.00 | 60 | 1017.6 |
| 20260901112532 | 69 | 279 | 11.0 | 22.0 | 0.00 | 0.08 | 0.00 | 59 | 1017.7 |
| 20260901112030 | 69 | 274 | 6.0 | 13.0 | 0.00 | 0.08 | 0.00 | 61 | 1017.7 |
| 20260901111528 | 69 | 285 | 6.0 | 14.0 | 0.00 | 0.08 | 0.00 | 61 | 1017.7 |
| 20260901111027 | 69 | 273 | 7.0 | 14.0 | 0.00 | 0.08 | 0.00 | 60 | 1017.7 |
| 20260901110525 | 69 | 287 | 8.0 | 15.0 | 0.00 | 0.08 | 0.00 | 59 | 1017.6 |
| 20260901110023 | 69 | 292 | 6.0 | 15.0 | 0.00 | 0.08 | 0.00 | 60 | 1017.6 |
| 20260901105521 | 69 | 281 | 7.0 | 14.0 | 0.00 | 0.08 | 0.00 | 60 | 1017.6 |
| 20260901105019 | 69 | 276 | 7.0 | 18.0 | 0.00 | 0.08 | 0.00 | 59 | 1017.5 |
| 20260901104517 | 69 | 265 | 7.0 | 14.0 | 0.00 | 0.08 | 0.00 | 60 | 1017.5 |
| 20260901104036 | 69 | 281 | 5.0 | 15.0 | 0.00 | 0.08 | 0.00 | 60 | 1017.5 |
| 20260901103534 | 69 | 277 | 7.0 | 14.0 | 0.00 | 0.08 | 0.00 | 60 | 1017.5 |
| 20260901103032 | 69 | 276 | 9.0 | 19.0 | 0.00 | 0.08 | 0.00 | 59 | 1017.5 |
| 20260901102530 | 70 | 281 | 9.0 | 21.0 | 0.00 | 0.08 | 0.00 | 58 | 1017.4 |
| 20260901102028 | 70 | 279 | 8.0 | 18.0 | 0.00 | 0.08 | 0.00 | 58 | 1017.3 |
| 20260901101526 | 70 | 280 | 9.0 | 19.0 | 0.00 | 0.08 | 0.00 | 58 | 1017.3 |
| 20260901101024 | 71 | 282 | 8.0 | 23.0 | 0.00 | 0.08 | 0.00 | 57 | 1017.2 |
| 20260901100522 | 71 | 273 | 10.0 | 19.0 | 0.00 | 0.08 | 0.00 | 58 | 1017.3 |
| 20260901100021 | 71 | 274 | 8.0 | 18.0 | 0.00 | 0.08 | 0.00 | 58 | 1017.3 |
| 20260901095518 | 71 | 307 | 9.0 | 18.0 | 0.00 | 0.08 | 0.00 | 58 | 1017.2 |
| 20260901095048 | 70 | 279 | 7.0 | 14.0 | 0.00 | 0.08 | 0.00 | 60 | 1017.2 |
| 20260901095017 | 70 | 279 | 7.0 | 14.0 | 0.00 | 0.08 | 0.00 | 60 | 1017.2 |
| 20260901094536 | 70 | 275 | 6.0 | 14.0 | 0.00 | 0.08 | 0.00 | 60 | 1017.1 |
| 20260901094033 | 70 | 267 | 7.0 | 15.0 | 0.00 | 0.08 | 0.00 | 60 | 1017.2 |
| 20260901093531 | 69 | 278 | 7.0 | 16.0 | 0.00 | 0.08 | 0.00 | 60 | 1017.1 |
| 20260901093030 | 69 | 282 | 8.0 | 17.0 | 0.00 | 0.08 | 0.00 | 59 | 1017.1 |
| 20260901092528 | 69 | 289 | 9.0 | 21.0 | 0.00 | 0.08 | 0.00 | 59 | 1017.1 |
| 20260901092026 | 69 | 273 | 9.0 | 23.0 | 0.00 | 0.08 | 0.00 | 59 | 1017.1 |
| 20260901091524 | 69 | 281 | 10.0 | 21.0 | 0.00 | 0.08 | 0.00 | 60 | 1017.0 |
| 20260901091022 | 69 | 287 | 10.0 | 21.0 | 0.00 | 0.08 | 0.00 | 62 | 1016.9 |
| 20260901090520 | 69 | 283 | 6.0 | 13.0 | 0.00 | 0.08 | 0.00 | 63 | 1016.8 |
| 20260901090049 | 69 | 283 | 7.0 | 15.0 | 0.00 | 0.08 | 0.00 | 64 | 1016.9 |
| 20260901090018 | 69 | 283 | 7.0 | 15.0 | 0.00 | 0.08 | 0.00 | 64 | 1016.9 |
| 20260901085535 | 69 | 269 | 8.0 | 21.0 | 0.00 | 0.08 | 0.00 | 65 | 1016.8 |
| 20260901085033 | 69 | 280 | 6.0 | 18.0 | 0.00 | 0.08 | 0.00 | 64 | 1016.8 |
| 20260901084531 | 69 | 276 | 8.0 | 16.0 | 0.00 | 0.08 | 0.00 | 65 | 1016.9 |
| 20260901084030 | 68 | 280 | 8.0 | 16.0 | 0.00 | 0.08 | 0.00 | 66 | 1016.8 |
| 20260901083528 | 68 | 289 | 8.0 | 16.0 | 0.00 | 0.08 | 0.00 | 66 | 1016.8 |
| 20260901083026 | 68 | 276 | 10.0 | 17.0 | 0.00 | 0.08 | 0.00 | 66 | 1016.8 |
| 20260901082524 | 68 | 290 | 7.0 | 15.0 | 0.00 | 0.08 | 0.00 | 68 | 1016.7 |
| 20260901082022 | 67 | 272 | 5.0 | 10.0 | 0.00 | 0.08 | 0.00 | 68 | 1016.7 |
| 20260901081520 | 67 | 293 | 7.0 | 16.0 | 0.00 | 0.08 | 0.00 | 66 | 1016.7 |
| 20260901081019 | 67 | 289 | 6.0 | 16.0 | 0.00 | 0.08 | 0.00 | 68 | 1016.6 |
| 20260901080516 | 67 | 291 | 5.0 | 11.0 | 0.00 | 0.08 | 0.00 | 68 | 1016.5 |
| 20260901080035 | 67 | 290 | 6.0 | 11.0 | 0.00 | 0.08 | 0.00 | 68 | 1016.6 |
| 20260901075533 | 67 | 284 | 5.0 | 11.0 | 0.00 | 0.08 | 0.00 | 68 | 1016.7 |
| 20260901075031 | 67 | 294 | 5.0 | 11.0 | 0.00 | 0.08 | 0.00 | 68 | 1016.7 |
| 20260901074529 | 67 | 287 | 6.0 | 13.0 | 0.00 | 0.08 | 0.00 | 68 | 1016.6 |
| 20260901074027 | 67 | 290 | 6.0 | 11.0 | 0.00 | 0.08 | 0.00 | 69 | 1016.6 |
| 20260901073525 | 66 | 291 | 5.0 | 13.0 | 0.00 | 0.08 | 0.00 | 69 | 1016.6 |
| 20260901073023 | 66 | 306 | 6.0 | 13.0 | 0.00 | 0.08 | 0.00 | 69 | 1016.5 |
| 20260901072522 | 66 | 281 | 5.0 | 10.0 | 0.00 | 0.08 | 0.00 | 69 | 1016.5 |
| 20260901072020 | 66 | 292 | 8.0 | 16.0 | 0.00 | 0.08 | 0.00 | 69 | 1016.4 |
| 20260901071518 | 65 | 282 | 5.0 | 10.0 | 0.00 | 0.08 | 0.00 | 71 | 1016.4 |
| 20260901071016 | 65 | 279 | 6.0 | 15.0 | 0.00 | 0.08 | 0.00 | 70 | 1016.3 |
| 20260901070534 | 65 | 291 | 8.0 | 17.0 | 0.00 | 0.08 | 0.00 | 70 | 1016.3 |
| 20260901070032 | 65 | 276 | 8.0 | 16.0 | 0.00 | 0.08 | 0.00 | 71 | 1016.4 |
| 20260901065544 | 65 | 287 | 8.0 | 18.0 | 0.00 | 0.08 | 0.00 | 71 | 1016.4 |
| 20260901065029 | 65 | 288 | 7.0 | 16.0 | 0.00 | 0.08 | 0.00 | 73 | 1016.2 |
| 20260901064527 | 65 | 283 | 7.0 | 13.0 | 0.00 | 0.08 | 0.00 | 73 | 1016.2 |
| 20260901064025 | 64 | 279 | 5.0 | 11.0 | 0.00 | 0.08 | 0.00 | 73 | 1016.2 |
| 20260901063523 | 64 | 287 | 7.0 | 15.0 | 0.00 | 0.08 | 0.00 | 73 | 1016.2 |
| 20260901063021 | 64 | 298 | 5.0 | 9.0 | 0.00 | 0.08 | 0.00 | 74 | 1016.2 |
| 20260901062519 | 64 | 282 | 5.0 | 13.0 | 0.00 | 0.08 | 0.00 | 75 | 1016.2 |
| 20260901062017 | 64 | 285 | 6.0 | 15.0 | 0.00 | 0.08 | 0.00 | 75 | 1016.2 |
| 20260901061516 | 63 | 289 | 5.0 | 11.0 | 0.00 | 0.08 | 0.00 | 76 | 1016.1 |
| 20260901061034 | 63 | 290 | 5.0 | 11.0 | 0.00 | 0.08 | 0.00 | 76 | 1016.0 |
| 20260901060532 | 63 | 284 | 5.0 | 13.0 | 0.00 | 0.08 | 0.00 | 77 | 1016.0 |
| 20260901060030 | 63 | 283 | 5.0 | 10.0 | 0.00 | 0.08 | 0.00 | 77 | 1016.0 |
| 20260901055528 | 63 | 279 | 5.0 | 11.0 | 0.00 | 0.08 | 0.00 | 77 | 1016.0 |
| 20260901055026 | 63 | 280 | 5.0 | 10.0 | 0.00 | 0.08 | 0.00 | 77 | 1015.9 |
| 20260901054524 | 63 | 287 | 5.0 | 13.0 | 0.00 | 0.08 | 0.00 | 77 | 1015.8 |
| 20260901054023 | 63 | 285 | 6.0 | 11.0 | 0.00 | 0.08 | 0.00 | 78 | 1015.9 |
| 20260901053521 | 63 | 281 | 7.0 | 22.0 | 0.00 | 0.08 | 0.00 | 79 | 1015.9 |
| 20260901053052 | 62 | 282 | 5.0 | 10.0 | 0.00 | 0.08 | 0.00 | 80 | 1015.8 |
| 20260901053019 | 62 | 282 | 5.0 | 10.0 | 0.00 | 0.08 | 0.00 | 80 | 1015.8 |
| 20260901052517 | 62 | 279 | 5.0 | 11.0 | 0.00 | 0.08 | 0.00 | 80 | 1015.8 |
| 20260901052035 | 62 | 280 | 5.0 | 11.0 | 0.00 | 0.08 | 0.00 | 80 | 1015.8 |
| 20260901051533 | 62 | 294 | 5.0 | 10.0 | 0.00 | 0.08 | 0.00 | 80 | 1015.7 |
| 20260901051032 | 62 | 274 | 4.0 | 8.0 | 0.00 | 0.08 | 0.00 | 80 | 1015.7 |
| 20260901050530 | 62 | 292 | 3.0 | 7.0 | 0.00 | 0.08 | 0.00 | 80 | 1015.6 |
| 20260901050028 | 62 | 295 | 4.0 | 8.0 | 0.00 | 0.08 | 0.00 | 80 | 1015.6 |
| 20260901045525 | 62 | 290 | 4.0 | 8.0 | 0.00 | 0.08 | 0.00 | 80 | 1015.5 |
| 20260901045024 | 62 | 288 | 4.0 | 8.0 | 0.00 | 0.08 | 0.00 | 80 | 1015.5 |
| 20260901044522 | 62 | 286 | 4.0 | 7.0 | 0.00 | 0.08 | 0.00 | 80 | 1015.4 |
| 20260901044020 | 62 | 279 | 4.0 | 8.0 | 0.00 | 0.08 | 0.00 | 80 | 1015.4 |
| 20260901043518 | 62 | 271 | 4.0 | 7.0 | 0.00 | 0.08 | 0.00 | 80 | 1015.3 |
| 20260901043047 | 62 | 284 | 5.0 | 11.0 | 0.00 | 0.08 | 0.00 | 80 | 1015.3 |
| 20260901043016 | 62 | 284 | 5.0 | 11.0 | 0.00 | 0.08 | 0.00 | 80 | 1015.3 |
| 20260901042534 | 62 | 285 | 6.0 | 11.0 | 0.00 | 0.08 | 0.00 | 80 | 1015.2 |
| 20260901042033 | 62 | 282 | 4.0 | 8.0 | 0.00 | 0.08 | 0.00 | 80 | 1015.0 |
| 20260901041531 | 62 | 289 | 4.0 | 10.0 | 0.00 | 0.08 | 0.00 | 80 | 1015.0 |
| 20260901041029 | 62 | 288 | 4.0 | 8.0 | 0.00 | 0.08 | 0.00 | 80 | 1014.9 |
| 20260901040527 | 62 | 287 | 5.0 | 10.0 | 0.00 | 0.08 | 0.00 | 80 | 1014.8 |
| 20260901040025 | 62 | 293 | 5.0 | 9.0 | 0.00 | 0.08 | 0.00 | 80 | 1014.8 |
| 20260901035523 | 62 | 276 | 5.0 | 11.0 | 0.00 | 0.08 | 0.00 | 80 | 1014.8 |
| 20260901035021 | 62 | 290 | 5.0 | 11.0 | 0.00 | 0.08 | 0.00 | 81 | 1014.9 |
| 20260901034519 | 62 | 280 | 5.0 | 10.0 | 0.00 | 0.08 | 0.00 | 81 | 1014.9 |
| 20260901034048 | 62 | 283 | 4.0 | 8.0 | 0.00 | 0.08 | 0.00 | 81 | 1014.8 |
| 20260901034017 | 62 | 283 | 4.0 | 8.0 | 0.00 | 0.08 | 0.00 | 81 | 1014.8 |
| 20260901033535 | 62 | 282 | 4.0 | 9.0 | 0.00 | 0.08 | 0.00 | 81 | 1014.8 |
| 20260901033033 | 62 | 286 | 3.0 | 6.0 | 0.00 | 0.08 | 0.00 | 81 | 1014.9 |
| 20260901032531 | 62 | 284 | 4.0 | 9.0 | 0.00 | 0.08 | 0.00 | 82 | 1014.9 |
| 20260901032030 | 62 | 292 | 5.0 | 9.0 | 0.00 | 0.08 | 0.00 | 82 | 1014.9 |
| 20260901031527 | 62 | 285 | 5.0 | 13.0 | 0.00 | 0.08 | 0.00 | 83 | 1014.9 |
| 20260901031026 | 62 | 286 | 4.0 | 11.0 | 0.00 | 0.08 | 0.00 | 83 | 1014.9 |
| 20260901030524 | 62 | 277 | 2.0 | 6.0 | 0.00 | 0.08 | 0.00 | 84 | 1014.9 |
| 20260901030022 | 62 | 282 | 3.0 | 8.0 | 0.00 | 0.08 | 0.00 | 84 | 1015.0 |
| 20260901025520 | 62 | 282 | 2.0 | 4.0 | 0.00 | 0.08 | 0.00 | 84 | 1014.8 |
| 20260901025050 | 62 | 268 | 2.0 | 4.0 | 0.00 | 0.08 | 0.00 | 84 | 1014.9 |
| 20260901025018 | 62 | 268 | 2.0 | 4.0 | 0.00 | 0.08 | 0.00 | 84 | 1014.9 |
| 20260901024516 | 62 | 273 | 2.0 | 4.0 | 0.00 | 0.08 | 0.00 | 84 | 1014.9 |
| 20260901024035 | 62 | 263 | 1.0 | 4.0 | 0.00 | 0.08 | 0.00 | 84 | 1014.9 |
| 20260901023533 | 62 | 241 | 1.0 | 3.0 | 0.00 | 0.08 | 0.00 | 84 | 1015.0 |
| 20260901023031 | 62 | 251 | 1.0 | 7.0 | 0.00 | 0.08 | 0.00 | 84 | 1014.9 |
| 20260901022529 | 62 | 255 | 1.0 | 6.0 | 0.00 | 0.08 | 0.00 | 84 | 1014.9 |
| 20260901022027 | 62 | 261 | 0.0 | 3.0 | 0.00 | 0.08 | 0.00 | 84 | 1014.7 |
| 20260901021525 | 62 | 260 | 1.0 | 3.0 | 0.00 | 0.08 | 0.00 | 84 | 1014.7 |
| 20260901021023 | 62 | 0.0 | 0.0 | 0.00 | 0.08 | 0.00 | 84 | 1014.7 | |
| 20260901020521 | 62 | 264 | 0.0 | 2.0 | 0.00 | 0.08 | 0.00 | 84 | 1014.7 |
| 20260901020019 | 62 | 261 | 0.0 | 3.0 | 0.00 | 0.08 | 0.00 | 84 | 1014.7 |
| 20260901015517 | 62 | 0.0 | 0.0 | 0.00 | 0.08 | 0.00 | 84 | 1014.7 | |
| 20260901015047 | 62 | 0.0 | 0.0 | 0.00 | 0.08 | 0.00 | 84 | 1014.7 | |
| 20260901015015 | 62 | 0.0 | 0.0 | 0.00 | 0.08 | 0.00 | 84 | 1014.7 | |
| 20260901014534 | 62 | 238 | 0.0 | 1.0 | 0.00 | 0.08 | 0.00 | 84 | 1014.8 |
| 20260901014032 | 62 | 253 | 0.0 | 2.0 | 0.00 | 0.08 | 0.00 | 84 | 1015.0 |
| 20260901013530 | 62 | 260 | 0.0 | 2.0 | 0.00 | 0.08 | 0.00 | 84 | 1014.9 |
| 20260901013029 | 62 | 223 | 0.0 | 4.0 | 0.00 | 0.08 | 0.00 | 84 | 1014.8 |
| 20260901012527 | 62 | 231 | 1.0 | 4.0 | 0.00 | 0.08 | 0.00 | 84 | 1014.8 |
| 20260901012025 | 62 | 246 | 0.0 | 2.0 | 0.00 | 0.08 | 0.00 | 84 | 1014.8 |
| 20260901011523 | 62 | 229 | 0.0 | 1.0 | 0.00 | 0.08 | 0.00 | 84 | 1014.8 |
| 20260901011021 | 62 | 231 | 1.0 | 3.0 | 0.00 | 0.08 | 0.00 | 84 | 1014.8 |
| 20260901010519 | 62 | 230 | 0.0 | 1.0 | 0.00 | 0.08 | 0.00 | 84 | 1014.7 |
| 20260901010049 | 62 | 276 | 1.0 | 4.0 | 0.00 | 0.08 | 0.00 | 83 | 1014.8 |
| 20260901010017 | 62 | 276 | 1.0 | 4.0 | 0.00 | 0.08 | 0.00 | 83 | 1014.8 |
| 20260901005535 | 62 | 285 | 1.0 | 4.0 | 0.00 | 0.08 | 0.00 | 83 | 1014.9 |
| 20260901005033 | 62 | 282 | 1.0 | 4.0 | 0.00 | 0.08 | 0.00 | 83 | 1014.9 |
| 20260901004531 | 62 | 259 | 1.0 | 2.0 | 0.00 | 0.08 | 0.00 | 83 | 1014.9 |
| 20260901004030 | 62 | 290 | 0.0 | 1.0 | 0.00 | 0.08 | 0.00 | 83 | 1014.9 |
| 20260901003528 | 62 | 0.0 | 0.0 | 0.00 | 0.08 | 0.00 | 83 | 1015.0 | |
| 20260901003059 | 62 | 0.0 | 0.0 | 0.00 | 0.08 | 0.00 | 83 | 1014.8 | |
| 20260901003026 | 62 | 0.0 | 0.0 | 0.00 | 0.08 | 0.00 | 83 | 1014.8 | |
| 20260901002524 | 62 | 0.0 | 0.0 | 0.00 | 0.08 | 0.00 | 83 | 1014.8 | |
| 20260901002022 | 62 | 0.0 | 0.0 | 0.00 | 0.08 | 0.00 | 83 | 1014.8 | |
| 20260901001520 | 62 | 0.0 | 0.0 | 0.00 | 0.08 | 0.00 | 82 | 1015.0 | |
| 20260901001050 | 62 | 0.0 | 0.0 | 0.00 | 0.08 | 0.00 | 82 | 1014.9 | |
| 20260901001018 | 62 | 0.0 | 0.0 | 0.00 | 0.08 | 0.00 | 82 | 1014.9 | |
| 20260901000516 | 62 | 0.0 | 0.0 | 0.00 | 0.08 | 0.00 | 82 | 1014.9 | |
| 20260901000035 | 62 | 0.0 | 0.0 | 0.00 | 0.08 | 0.00 | 82 | 1015.0 | |
| 20260831235533 | 62 | 198 | 0.0 | 1.0 | 0.00 | 0.08 | 0.00 | 82 | 1015.0 |
| 20260831235031 | 62 | 0.0 | 0.0 | 0.00 | 0.08 | 0.00 | 82 | 1015.1 | |
| 20260831234529 | 62 | 223 | 0.0 | 1.0 | 0.00 | 0.08 | 0.00 | 82 | 1015.2 |
| 20260831234027 | 62 | 0.0 | 0.0 | 0.00 | 0.08 | 0.00 | 82 | 1015.3 | |
| 20260831233525 | 62 | 0.0 | 0.0 | 0.00 | 0.08 | 0.00 | 81 | 1015.4 | |
| 20260831233023 | 62 | 0.0 | 0.0 | 0.00 | 0.08 | 0.00 | 81 | 1015.4 | |
| 20260831232521 | 62 | 0.0 | 0.0 | 0.00 | 0.08 | 0.00 | 81 | 1015.5 | |
| 20260831232019 | 62 | 0.0 | 0.0 | 0.00 | 0.08 | 0.00 | 81 | 1015.4 | |
| 20260831231518 | 62 | 0.0 | 0.0 | 0.00 | 0.08 | 0.00 | 81 | 1015.4 | |
| 20260831231049 | 62 | 0.0 | 0.0 | 0.00 | 0.08 | 0.00 | 81 | 1015.4 | |
| 20260831231016 | 62 | 0.0 | 0.0 | 0.00 | 0.08 | 0.00 | 81 | 1015.4 | |
| 20260831230534 | 62 | 0.0 | 0.0 | 0.00 | 0.08 | 0.00 | 81 | 1015.3 | |
| 20260831230032 | 62 | 150 | 0.0 | 1.0 | 0.00 | 0.08 | 0.00 | 81 | 1015.3 |
| 20260831225530 | 62 | 150 | 0.0 | 1.0 | 0.00 | 0.08 | 0.00 | 81 | 1015.3 |
| 20260831225028 | 63 | 152 | 0.0 | 2.0 | 0.00 | 0.08 | 0.00 | 81 | 1015.3 |
| 20260831224527 | 63 | 0.0 | 0.0 | 0.00 | 0.08 | 0.00 | 81 | 1015.4 | |
| 20260831224025 | 63 | 0.0 | 0.0 | 0.00 | 0.08 | 0.00 | 81 | 1015.4 | |
| 20260831223523 | 63 | 0.0 | 0.0 | 0.00 | 0.08 | 0.00 | 81 | 1015.4 |